Simultaneous Nadir Overpasses (SNOs) Predictions

Prediction of SNOs between METOP-A and TERRA Satellite Orbit:

Table of predicted SNOs for the next 14.0 days since TLE Epoch: 9/12/2015
Index Date (METOP-A) Time (METOP-A) Lat,Lon (METOP-A) SZA (METOP-A ) Date (TERRA) Time (TERRA) Lat,Lon (TERRA) SZA (TERRA ) Distance(km) Time Diff (sec)
1 09/14/2015 19:33:12 -81.36, 115.06 98.92 09/14/2015 19:33:52 -81.36, 115.02 98.90 0.93 40
2 09/14/2015 20:23:52 81.36, -77.30 81.14 09/14/2015 20:23:18 81.37, -77.24 81.13 1.28 34
3 09/17/2015 15:07:32 -81.36,-178.63 97.83 09/17/2015 15:08:03 -81.35,-178.79 97.83 2.80 31
4 09/17/2015 15:58:12 81.36, -11.01 82.23 09/17/2015 15:57:29 81.35, -11.07 82.20 1.32 43
5 09/20/2015 10:41:53 -81.36,-112.36 96.73 09/20/2015 10:42:14 -81.35,-112.30 96.72 1.22 21
6 09/20/2015 11:32:33 81.36, 55.26 83.32 09/20/2015 11:31:40 81.36, 55.40 83.31 2.50 53
7 09/23/2015 06:16:13 -81.36, -45.73 95.59 09/23/2015 06:16:25 -81.35, -45.88 95.61 2.73 12
8 09/23/2015 07:06:52 81.37, 122.28 84.51 09/23/2015 07:05:50 81.37, 122.18 84.47 1.77 62




NCC Satellite Simultaneous Nadir Overpasses (SNOs) Prediction Service
